Location: Neuvy Saint Sepulchre
(46.5953°N, 1.8122°E)
Time: 06:44:15
(UTC+01:00)

ISS - Pass Details

Date: 25 November 2023
Orbit: 416 x 417 km, 51.6° (Epoch: 01 December)

Event Time Altitude Azimuth Distance (km) Brightness Sun altitude
Rises 19:50:11 0° 291° (WNW) 2,362 1.1 -26.9°
Reaches altitude 10° 19:52:22 10° 300° (WNW) 1,499 -0.3 -27.3°
Enters shadow 19:53:18 17° 308° (NW) 1,163 -1.0 -27.4°
